Weather History for EHWO - June, 2013

Change the Weather History Date:

Saturday, June 15, 2013

  Actual Average Record
Temperature  
Mean Temperature 58 °F -  
Max Temperature 68 °F 68 °F 75 °F (1999)
Min Temperature 48 °F 52 °F 42 °F (2005)
Degree Days  
Heating Degree Days 7    
Growing Degree Days 8 (Base 50)    
Moisture  
Dew Point 47 °F    
Average Humidity 66    
Maximum Humidity 88    
Minimum Humidity 40    
Precipitation  
Precipitation 0.00 in - - ()
Sea Level Pressure  
Sea Level Pressure 29.86 in    
Wind  
Wind Speed 10 mph ()    
Max Wind Speed 25 mph    
Max Gust Speed 38 mph    
Visibility 6.1 miles    
Events Rain    
Averages and records for this station are not official NWS values.
T = Trace of Precipitation, MM = Missing Value Source: Averaged Metar Reports

Daily Weather History Graph

Daily Weather History Graph

Search for Another Location

Airport or City:

Trip Planner

Search our weather history database for the weather conditions in past years. The results will help you decide how hot, cold, wet, or windy it might be!

Date:

Astronomy

Jun. 15, 2013 Rise Set
Actual Time 5:25 AM CEST 10:01 PM CEST
Civil Twilight 4:37 AM CEST 10:48 PM CEST
Nautical Twilight 3:24 AM CEST 12:02 AM CEST
Astronomical Twilight 2:15 AM CEST 1:10 AM CEST
Moon 12:25 PM CEST (6/15) 12:50 AM CEST (6/15)
Length of Visible Light 18h 11m
Length of Day
16h 36m
Waxing Crescent, 37% of the Moon is Illuminated
Jun 15
Waxing Crescent
Jun 16
First Quarter
Jun 23
Full
Jun 30
Last Quarter
Jul 8
New

Hourly Weather History & Observations

Time (CEST) Temp. Dew Point Humidity Pressure Visibility Wind Dir Wind Speed Gust Speed Precip Events Conditions
12:25 AM 48.2 °F 44.6 °F 87% 29.95 in 6.2 mi SE 2.3 mph - N/A   Unknown
12:55 AM 53.6 °F 46.4 °F 77% 29.95 in 6.2 mi SE 3.5 mph - N/A   Unknown
1:25 AM 53.6 °F 46.4 °F 77% 29.95 in 6.2 mi SSE 4.6 mph - N/A   Unknown
1:55 AM 51.8 °F 46.4 °F 82% 29.92 in 6.2 mi SSE 4.6 mph - N/A   Unknown
2:25 AM 51.8 °F 46.4 °F 82% 29.92 in 6.2 mi SSE 4.6 mph - N/A   Unknown
2:55 AM 51.8 °F 46.4 °F 82% 29.92 in 6.2 mi SSE 4.6 mph - N/A   Unknown
3:25 AM 50.0 °F 44.6 °F 82% 29.89 in 6.2 mi SE 3.5 mph - N/A   Unknown
3:55 AM 50.0 °F 46.4 °F 87% 29.89 in 6.2 mi SSE 3.5 mph - N/A   Partly Cloudy
4:25 AM 50.0 °F 46.4 °F 87% 29.86 in 6.2 mi SE 4.6 mph - N/A   Mostly Cloudy
4:55 AM 51.8 °F 46.4 °F 82% 29.86 in 6.2 mi SE 4.6 mph - N/A   Unknown
5:25 AM 50.0 °F 46.4 °F 87% 29.83 in 6.2 mi SSE 3.5 mph - N/A   Mostly Cloudy
5:55 AM 51.8 °F 46.4 °F 82% 29.83 in 6.2 mi SSE 4.6 mph - N/A   Overcast
6:25 AM 53.6 °F 48.2 °F 82% 29.83 in 6.2 mi SSE 4.6 mph - N/A   Mostly Cloudy
6:55 AM 55.4 °F 48.2 °F 77% 29.80 in 6.2 mi SSE 5.8 mph - N/A   Mostly Cloudy
7:25 AM 55.4 °F 48.2 °F 77% 29.80 in 6.2 mi SSE 5.8 mph - N/A   Overcast
7:55 AM 59.0 °F 50.0 °F 72% 29.80 in 6.2 mi South 6.9 mph - N/A   Overcast
8:25 AM 60.8 °F 50.0 °F 68% 29.80 in 6.2 mi South 10.4 mph - N/A   Overcast
8:55 AM 60.8 °F 50.0 °F 68% 29.80 in 6.2 mi SSW 11.5 mph - N/A   Mostly Cloudy
9:25 AM 60.8 °F 51.8 °F 72% 29.77 in 6.2 mi SSW 11.5 mph - N/A Rain Light Rain
9:37 AM 59.0 °F 51.8 °F 77% 29.80 in 6.2 mi SW 13.8 mph 25.3 mph N/A Rain Light Rain
9:45 AM 57.2 °F 53.6 °F 88% 29.80 in 3.7 mi SW 13.8 mph - N/A Rain Rain Showers
9:49 AM 57.2 °F 53.6 °F 88% 29.80 in 5.6 mi SW 15.0 mph - N/A Rain Rain Showers
9:55 AM 57.2 °F 53.6 °F 88% 29.80 in 6.2 mi SW 12.7 mph - N/A   Overcast
10:04 AM 57.2 °F 53.6 °F 88% 29.80 in 6.2 mi SW 10.4 mph - N/A Rain Light Rain
10:18 AM 59.0 °F 55.4 °F 88% 29.80 in 6.2 mi SW 12.7 mph - N/A   Overcast
10:25 AM 60.8 °F 55.4 °F 82% 29.80 in 6.2 mi SW 13.8 mph - N/A   Mostly Cloudy
10:30 AM 60.8 °F 55.4 °F 82% 29.80 in 6.2 mi SW 13.8 mph - N/A   Mostly Cloudy
10:37 AM 60.8 °F 55.4 °F 82% 29.80 in 6.2 mi SW 16.1 mph - N/A   Overcast
10:55 AM 60.8 °F 51.8 °F 72% 29.80 in 6.2 mi WSW 19.6 mph - N/A   Mostly Cloudy
10:56 AM 59.0 °F 50.0 °F 72% 29.80 in 6.2 mi WSW 19.6 mph 32.2 mph N/A   Mostly Cloudy
11:25 AM 60.8 °F 48.2 °F 63% 29.83 in 6.2 mi West 21.9 mph - N/A   Mostly Cloudy
11:55 AM 62.6 °F 46.4 °F 55% 29.83 in 6.2 mi West 20.7 mph - N/A   Mostly Cloudy
12:25 PM 62.6 °F 44.6 °F 52% 29.86 in 6.2 mi West 18.4 mph - N/A   Mostly Cloudy
12:55 PM 64.4 °F 46.4 °F 52% 29.86 in 6.2 mi WSW 19.6 mph - N/A   Scattered Clouds
1:25 PM 64.4 °F 44.6 °F 49% 29.86 in 6.2 mi SW 18.4 mph - N/A   Partly Cloudy
1:55 PM 64.4 °F 44.6 °F 49% 29.86 in 6.2 mi SW 20.7 mph 32.2 mph N/A   Mostly Cloudy
2:25 PM 68.0 °F 46.4 °F 46% 29.86 in 6.2 mi WSW 21.9 mph - N/A   Scattered Clouds
2:55 PM 66.2 °F 44.6 °F 46% 29.86 in 6.2 mi WSW 19.6 mph - N/A   Mostly Cloudy
3:25 PM 66.2 °F 44.6 °F 46% 29.86 in 6.2 mi WSW 18.4 mph - N/A   Scattered Clouds
3:55 PM 64.4 °F 42.8 °F 45% 29.86 in 6.2 mi WSW 23.0 mph - N/A   Mostly Cloudy
4:25 PM 66.2 °F 42.8 °F 43% 29.86 in 6.2 mi WSW 21.9 mph - N/A   Mostly Cloudy
4:55 PM 66.2 °F 42.8 °F 43% 29.89 in 6.2 mi WSW 21.9 mph 36.8 mph N/A   Mostly Cloudy
5:25 PM 66.2 °F 41.0 °F 40% 29.89 in 6.2 mi WSW 23.0 mph - N/A   Partly Cloudy
5:55 PM 66.2 °F 41.0 °F 40% 29.86 in 6.2 mi WSW 23.0 mph - N/A   Partly Cloudy
6:25 PM 66.2 °F 41.0 °F 40% 29.86 in 6.2 mi WSW 25.3 mph 38.0 mph N/A   Scattered Clouds
6:55 PM 64.4 °F 41.0 °F 42% 29.89 in 6.2 mi WSW 23.0 mph - N/A   Mostly Cloudy
7:25 PM 64.4 °F 41.0 °F 42% 29.89 in 6.2 mi WSW 24.2 mph 35.7 mph N/A   Scattered Clouds
7:55 PM 62.6 °F 41.0 °F 45% 29.89 in 6.2 mi WSW 20.7 mph - N/A   Scattered Clouds
8:25 PM 62.6 °F 41.0 °F 45% 29.89 in 6.2 mi WSW 20.7 mph - N/A   Overcast
8:55 PM 62.6 °F 41.0 °F 45% 29.89 in 6.2 mi WSW 18.4 mph 29.9 mph N/A   Overcast
9:25 PM 60.8 °F 41.0 °F 48% 29.89 in 6.2 mi WSW 18.4 mph - N/A   Overcast
9:55 PM 59.0 °F 42.8 °F 55% 29.89 in 6.2 mi WSW 16.1 mph - N/A   Unknown
10:25 PM 59.0 °F 42.8 °F 55% 29.92 in 6.2 mi SW 12.7 mph - N/A   Unknown
10:55 PM 59.0 °F 44.6 °F 59% 29.92 in 6.2 mi SW 17.3 mph - N/A   Unknown
11:25 PM 57.2 °F 44.6 °F 63% 29.92 in 6.2 mi SW 16.1 mph - N/A   Unknown
11:55 PM 57.2 °F 44.6 °F 63% 29.92 in 6.2 mi SW 13.8 mph - N/A   Unknown